MSR290 HECA-HESN

Flight info

Callsign MSR290
Flight time 1h 6m
Altitude 25000
Route DCT CVO A727 LXR W605 ASN DCT
Aircraft A21N/M-SDE2E3FGHIRWXY/LB1

Departure

Time 2026-04-27 16:44
Airport Cairo International Airport (HECA)

Arrival

Time 2026-04-27 17:50
Airport Aswan International Airport (HESN)
Time Latitude Longitude Altitude Speed Heading
2026-04-27 16:27 30.10766 31.39181 377 ft 0 kts 75°
2026-04-27 16:34 30.10760 31.39155 377 ft 4 kts 75°
2026-04-27 16:35 30.10755 31.39130 377 ft 4 kts 76°
2026-04-27 16:35 30.10752 31.39101 377 ft 4 kts 108°
2026-04-27 16:35 30.10788 31.39070 377 ft 0 kts 165°
2026-04-27 16:40 30.10783 31.39072 377 ft 9 kts 165°
2026-04-27 16:40 30.10501 31.39157 377 ft 74 kts 165°
2026-04-27 16:40 30.09931 31.39363 388 ft 75 kts 143°
2026-04-27 16:41 30.09798 31.39852 377 ft 77 kts 87°
2026-04-27 16:41 30.09879 31.40420 378 ft 65 kts 18°
2026-04-27 16:41 30.10215 31.40513 377 ft 51 kts 354°
2026-04-27 16:41 30.10382 31.40440 379 ft 0 kts 337°
2026-04-27 16:42 30.10387 31.40438 380 ft 7 kts 337°
2026-04-27 16:42 30.10411 31.40438 380 ft 2 kts 14°
2026-04-27 16:43 30.10422 31.40441 380 ft 1 kts 15°
2026-04-27 16:43 30.10424 31.40443 380 ft 0 kts 32°
2026-04-27 16:43 30.10502 31.40510 381 ft 38 kts 40°
2026-04-27 16:43 30.10794 31.40897 374 ft 92 kts 52°
2026-04-27 16:44 30.11342 31.41650 378 ft 153 kts 49°
2026-04-27 16:44 30.12123 31.42694 566 ft 179 kts 49°
2026-04-27 16:44 30.12942 31.43790 1107 ft 180 kts 49°
2026-04-27 16:44 30.13756 31.44881 1772 ft 179 kts 49°
2026-04-27 16:45 30.14439 31.46117 2269 ft 194 kts 74°
2026-04-27 16:45 30.14513 31.47741 2504 ft 216 kts 104°
2026-04-27 16:45 30.13872 31.49361 2748 ft 237 kts 130°
2026-04-27 16:45 30.12621 31.50679 3173 ft 251 kts 145°
2026-04-27 16:46 30.11030 31.51622 3684 ft 263 kts 164°
2026-04-27 16:46 30.09232 31.52069 4432 ft 267 kts 173°
2026-04-27 16:46 30.07372 31.52250 5198 ft 270 kts 178°
2026-04-27 16:46 30.05487 31.52271 5936 ft 273 kts 181°
2026-04-27 16:47 30.03573 31.52217 6656 ft 277 kts 182°
2026-04-27 16:47 30.01637 31.52143 7361 ft 280 kts 182°
2026-04-27 16:47 29.99676 31.52077 8051 ft 284 kts 182°
2026-04-27 16:47 29.97718 31.52027 8714 ft 287 kts 181°
2026-04-27 16:48 29.95707 31.51994 9366 ft 290 kts 181°
2026-04-27 16:48 29.93675 31.51972 9993 ft 294 kts 181°
2026-04-27 16:48 29.91595 31.51958 10383 ft 306 kts 180°
2026-04-27 16:49 29.87111 31.51934 10819 ft 337 kts 180°
2026-04-27 16:49 29.84718 31.51921 11013 ft 350 kts 180°
2026-04-27 16:49 29.82267 31.51907 11191 ft 362 kts 180°
2026-04-27 16:49 29.79720 31.51892 11449 ft 370 kts 180°
2026-04-27 16:50 29.77131 31.51877 11813 ft 374 kts 180°
2026-04-27 16:50 29.74520 31.51861 12194 ft 377 kts 180°
2026-04-27 16:50 29.71890 31.51870 12567 ft 379 kts 177°
2026-04-27 16:50 29.69265 31.52264 12934 ft 382 kts 169°
2026-04-27 16:51 29.66658 31.52914 13301 ft 385 kts 167°
2026-04-27 16:51 29.64062 31.53687 13660 ft 387 kts 165°
2026-04-27 16:51 29.61459 31.54533 14012 ft 390 kts 164°
2026-04-27 16:51 29.58854 31.55410 14357 ft 392 kts 164°
2026-04-27 16:52 29.56265 31.56287 14690 ft 394 kts 164°
2026-04-27 16:52 29.53625 31.57176 15017 ft 396 kts 164°
2026-04-27 16:52 29.50968 31.58061 15331 ft 399 kts 164°
2026-04-27 16:52 29.48295 31.58943 15631 ft 401 kts 164°
2026-04-27 16:53 29.45608 31.59823 15922 ft 403 kts 164°
2026-04-27 16:53 29.42903 31.60706 16202 ft 405 kts 164°
2026-04-27 16:53 29.40189 31.61590 16464 ft 407 kts 164°
2026-04-27 16:53 29.37459 31.62478 16713 ft 409 kts 164°
2026-04-27 16:54 29.34757 31.63357 16942 ft 410 kts 164°
2026-04-27 16:54 29.32005 31.64252 17162 ft 412 kts 164°
2026-04-27 16:54 29.29244 31.65150 17370 ft 413 kts 164°
2026-04-27 16:54 29.26472 31.66052 17566 ft 415 kts 164°
2026-04-27 16:55 29.23688 31.66956 17749 ft 416 kts 164°
2026-04-27 16:55 29.20896 31.67863 17922 ft 418 kts 164°
2026-04-27 16:55 29.18096 31.68772 18085 ft 419 kts 164°
2026-04-27 16:55 29.15291 31.69682 18240 ft 420 kts 164°
2026-04-27 16:56 29.12475 31.70595 18387 ft 421 kts 164°
2026-04-27 16:56 29.09652 31.71510 18526 ft 422 kts 164°
2026-04-27 16:56 29.06859 31.72414 18655 ft 423 kts 164°
2026-04-27 16:56 29.04023 31.73333 18779 ft 424 kts 164°
2026-04-27 16:57 29.01182 31.74252 18897 ft 425 kts 164°
2026-04-27 16:57 28.98332 31.75172 19009 ft 426 kts 165°
2026-04-27 16:57 28.95479 31.76087 19114 ft 427 kts 165°
2026-04-27 16:57 28.92616 31.77000 19213 ft 427 kts 165°
2026-04-27 16:58 28.89748 31.77911 19307 ft 428 kts 165°
2026-04-27 16:58 28.86875 31.78823 19396 ft 429 kts 165°
2026-04-27 16:58 28.84040 31.79723 19479 ft 429 kts 165°
2026-04-27 16:58 28.81158 31.80637 19559 ft 430 kts 165°
2026-04-27 16:59 28.78272 31.81553 19635 ft 431 kts 165°
2026-04-27 16:59 28.75386 31.82468 19706 ft 431 kts 165°
2026-04-27 16:59 28.72491 31.83386 19774 ft 432 kts 165°
2026-04-27 16:59 28.69596 31.84304 19839 ft 432 kts 165°
2026-04-27 17:00 28.65720 31.85532 19921 ft 433 kts 165°
2026-04-27 17:00 28.60889 31.87061 20014 ft 434 kts 165°
2026-04-27 17:00 28.58021 31.87968 20066 ft 434 kts 165°
2026-04-27 17:01 28.55112 31.88887 20116 ft 434 kts 165°
2026-04-27 17:01 28.52200 31.89807 20165 ft 435 kts 165°
2026-04-27 17:01 28.49285 31.90727 20213 ft 435 kts 165°
2026-04-27 17:01 28.46367 31.91648 20259 ft 435 kts 165°
2026-04-27 17:02 28.43444 31.92569 20303 ft 436 kts 165°
2026-04-27 17:02 28.40525 31.93489 20347 ft 436 kts 165°
2026-04-27 17:02 28.37602 31.94410 20388 ft 436 kts 165°
2026-04-27 17:02 28.34671 31.95332 20429 ft 437 kts 165°
2026-04-27 17:03 28.31742 31.96254 20468 ft 437 kts 165°
2026-04-27 17:03 28.28854 31.97162 20504 ft 437 kts 165°
2026-04-27 17:03 28.25922 31.98083 20541 ft 437 kts 165°
2026-04-27 17:03 28.22985 31.99006 20576 ft 438 kts 165°
2026-04-27 17:04 28.20053 31.99926 20609 ft 438 kts 165°
2026-04-27 17:04 28.17111 32.00849 20642 ft 438 kts 165°
2026-04-27 17:04 28.14175 32.01769 20674 ft 438 kts 165°
2026-04-27 17:04 28.11234 32.02691 20704 ft 439 kts 165°
2026-04-27 17:05 28.08291 32.03612 20734 ft 439 kts 165°
2026-04-27 17:05 28.05348 32.04534 20763 ft 439 kts 165°
2026-04-27 17:05 28.02443 32.05446 20791 ft 439 kts 165°
2026-04-27 17:05 28.00453 32.06078 20808 ft 439 kts 165°
2026-04-27 17:06 27.96559 32.07323 20842 ft 440 kts 164°
2026-04-27 17:06 27.93614 32.08268 20868 ft 440 kts 164°
2026-04-27 17:06 27.90668 32.09214 20892 ft 440 kts 164°
2026-04-27 17:06 27.87725 32.10157 20915 ft 440 kts 164°
2026-04-27 17:07 27.84777 32.11100 20937 ft 440 kts 164°
2026-04-27 17:07 27.81829 32.12042 20959 ft 440 kts 164°
2026-04-27 17:07 27.78878 32.12984 20981 ft 441 kts 164°
2026-04-27 17:07 27.75927 32.13926 21000 ft 441 kts 164°
2026-04-27 17:08 27.73016 32.14854 21020 ft 441 kts 165°
2026-04-27 17:08 27.70064 32.15794 21039 ft 441 kts 165°
2026-04-27 17:08 27.67111 32.16734 21058 ft 441 kts 165°
2026-04-27 17:08 27.64154 32.17675 21076 ft 441 kts 165°
2026-04-27 17:09 27.61199 32.18615 21094 ft 441 kts 165°
2026-04-27 17:09 27.58245 32.19554 21110 ft 441 kts 165°
2026-04-27 17:09 27.55289 32.20493 21127 ft 442 kts 165°
2026-04-27 17:09 27.52369 32.21420 21143 ft 442 kts 165°
2026-04-27 17:10 27.49411 32.22359 21158 ft 442 kts 165°
2026-04-27 17:10 27.46454 32.23297 21174 ft 442 kts 165°
2026-04-27 17:10 27.43493 32.24235 21189 ft 442 kts 165°
2026-04-27 17:10 27.40534 32.25173 21209 ft 442 kts 165°
2026-04-27 17:11 27.37573 32.26110 21224 ft 442 kts 165°
2026-04-27 17:11 27.32647 32.27669 21245 ft 442 kts 165°
2026-04-27 17:11 27.28723 32.28910 21261 ft 442 kts 165°
2026-04-27 17:12 27.22795 32.30783 21285 ft 443 kts 165°
2026-04-27 17:12 27.19831 32.31719 21297 ft 443 kts 165°
2026-04-27 17:12 27.16865 32.32655 21309 ft 443 kts 165°
2026-04-27 17:13 27.14901 32.33274 21316 ft 443 kts 165°
2026-04-27 17:13 27.11936 32.34209 21327 ft 443 kts 165°
2026-04-27 17:13 27.08970 32.35144 21338 ft 443 kts 165°
2026-04-27 17:13 27.06003 32.36079 21348 ft 443 kts 165°
2026-04-27 17:14 27.03034 32.37013 21357 ft 443 kts 165°
2026-04-27 17:14 27.00068 32.37946 21366 ft 443 kts 165°
2026-04-27 17:14 26.97097 32.38881 21376 ft 443 kts 165°
2026-04-27 17:14 26.94130 32.39813 21386 ft 443 kts 165°
2026-04-27 17:15 26.91160 32.40746 21395 ft 443 kts 165°
2026-04-27 17:15 26.88230 32.41666 21404 ft 443 kts 165°
2026-04-27 17:15 26.85258 32.42598 21413 ft 443 kts 165°
2026-04-27 17:15 26.82291 32.43529 21421 ft 443 kts 165°
2026-04-27 17:16 26.79321 32.44460 21429 ft 443 kts 165°
2026-04-27 17:16 26.76349 32.45390 21437 ft 443 kts 165°
2026-04-27 17:16 26.73377 32.46321 21446 ft 443 kts 165°
2026-04-27 17:16 26.70406 32.47250 21454 ft 444 kts 165°
2026-04-27 17:17 26.67435 32.48180 21462 ft 444 kts 165°
2026-04-27 17:17 26.64461 32.49109 21470 ft 444 kts 165°
2026-04-27 17:17 26.61528 32.50026 21478 ft 444 kts 165°
2026-04-27 17:18 26.55581 32.51882 21492 ft 444 kts 165°
2026-04-27 17:18 26.52608 32.52809 21501 ft 444 kts 165°
2026-04-27 17:18 26.49636 32.53736 21509 ft 444 kts 165°
2026-04-27 17:18 26.46661 32.54663 21527 ft 444 kts 165°
2026-04-27 17:19 26.43706 32.55583 21801 ft 437 kts 165°
2026-04-27 17:19 26.40812 32.56484 22254 ft 427 kts 165°
2026-04-27 17:19 26.37978 32.57366 22710 ft 419 kts 165°
2026-04-27 17:19 26.35194 32.58231 23165 ft 412 kts 165°
2026-04-27 17:20 26.32492 32.59071 23613 ft 406 kts 165°
2026-04-27 17:20 26.29790 32.59910 24066 ft 401 kts 165°
2026-04-27 17:20 26.27121 32.60739 24518 ft 396 kts 165°
2026-04-27 17:20 26.24473 32.61561 24896 ft 395 kts 165°
2026-04-27 17:21 26.21812 32.62386 24995 ft 400 kts 165°
2026-04-27 17:21 26.19103 32.63225 24999 ft 408 kts 165°
2026-04-27 17:21 26.16351 32.64077 24998 ft 414 kts 165°
2026-04-27 17:21 26.13557 32.64943 24998 ft 419 kts 165°
2026-04-27 17:22 26.10767 32.65806 24998 ft 424 kts 165°
2026-04-27 17:22 26.07909 32.66690 24999 ft 428 kts 165°
2026-04-27 17:22 26.05030 32.67581 24999 ft 431 kts 165°
2026-04-27 17:22 26.02128 32.68478 24999 ft 434 kts 165°
2026-04-27 17:23 25.99207 32.69380 24999 ft 437 kts 165°
2026-04-27 17:23 25.96272 32.70286 24999 ft 439 kts 165°
2026-04-27 17:23 25.93325 32.71196 24999 ft 441 kts 165°
2026-04-27 17:23 25.90366 32.72109 24999 ft 442 kts 165°
2026-04-27 17:24 25.87394 32.73025 25000 ft 444 kts 165°
2026-04-27 17:24 25.84458 32.73930 25000 ft 445 kts 165°
2026-04-27 17:24 25.81472 32.74849 25000 ft 446 kts 165°
2026-04-27 17:24 25.78484 32.75769 25000 ft 446 kts 165°
2026-04-27 17:25 25.75461 32.76556 24997 ft 447 kts 173°
2026-04-27 17:25 25.72368 32.76877 25001 ft 447 kts 176°
2026-04-27 17:25 25.69262 32.77071 25000 ft 447 kts 178°
2026-04-27 17:25 25.66149 32.77184 25000 ft 448 kts 179°
2026-04-27 17:26 25.63034 32.77256 25000 ft 448 kts 179°
2026-04-27 17:26 25.59915 32.77315 25000 ft 448 kts 179°
2026-04-27 17:26 25.56838 32.77374 25000 ft 449 kts 179°
2026-04-27 17:26 25.53716 32.77440 25000 ft 449 kts 179°
2026-04-27 17:27 25.50592 32.77513 25000 ft 449 kts 179°
2026-04-27 17:27 25.47467 32.77592 25000 ft 449 kts 179°
2026-04-27 17:27 25.44340 32.77674 25000 ft 449 kts 179°
2026-04-27 17:27 25.41214 32.77757 25000 ft 449 kts 179°
2026-04-27 17:28 25.38089 32.77841 25000 ft 450 kts 179°
2026-04-27 17:28 25.34959 32.77926 25000 ft 450 kts 179°
2026-04-27 17:28 25.28745 32.78092 25000 ft 450 kts 179°
2026-04-27 17:29 25.25613 32.78175 25000 ft 450 kts 179°
2026-04-27 17:29 25.22483 32.78258 25000 ft 450 kts 179°
2026-04-27 17:29 25.19351 32.78342 25000 ft 450 kts 179°
2026-04-27 17:29 25.16221 32.78424 25000 ft 450 kts 179°
2026-04-27 17:30 25.13091 32.78508 25000 ft 450 kts 179°
2026-04-27 17:30 25.06827 32.78679 24905 ft 453 kts 179°
2026-04-27 17:30 25.03690 32.78766 24501 ft 461 kts 179°
2026-04-27 17:31 25.00475 32.78856 24044 ft 460 kts 179°
2026-04-27 17:31 24.97305 32.78944 23598 ft 452 kts 179°
2026-04-27 17:31 24.94188 32.79031 23152 ft 445 kts 179°
2026-04-27 17:31 24.91111 32.79117 22705 ft 440 kts 179°
2026-04-27 17:32 24.88065 32.79201 22258 ft 437 kts 179°
2026-04-27 17:32 24.82033 32.79368 21359 ft 430 kts 179°
2026-04-27 17:32 24.79053 32.79450 20910 ft 427 kts 179°
2026-04-27 17:33 24.76096 32.79532 20462 ft 423 kts 179°
2026-04-27 17:33 24.73204 32.79611 20019 ft 420 kts 179°
2026-04-27 17:33 24.70298 32.79691 19571 ft 416 kts 179°
2026-04-27 17:33 24.67418 32.79771 19122 ft 413 kts 179°
2026-04-27 17:34 24.64555 32.79850 18673 ft 409 kts 179°
2026-04-27 17:34 24.61721 32.79928 18224 ft 406 kts 179°
2026-04-27 17:34 24.58908 32.80005 17775 ft 403 kts 179°
2026-04-27 17:34 24.56118 32.80082 17326 ft 399 kts 179°
2026-04-27 17:35 24.53353 32.80158 16878 ft 396 kts 179°
2026-04-27 17:35 24.50609 32.80233 16429 ft 393 kts 179°
2026-04-27 17:35 24.47922 32.80307 15986 ft 390 kts 179°
2026-04-27 17:35 24.45220 32.80381 15537 ft 387 kts 179°
2026-04-27 17:36 24.42544 32.80455 15089 ft 384 kts 179°
2026-04-27 17:36 24.39879 32.80528 14639 ft 381 kts 179°
2026-04-27 17:36 24.37239 32.80600 14190 ft 378 kts 179°
2026-04-27 17:36 24.34624 32.80672 13742 ft 375 kts 179°
2026-04-27 17:37 24.32028 32.80743 13293 ft 372 kts 179°
2026-04-27 17:37 24.29450 32.80814 12844 ft 369 kts 179°
2026-04-27 17:37 24.26893 32.80884 12397 ft 366 kts 179°
2026-04-27 17:37 24.24394 32.80952 12043 ft 363 kts 179°
2026-04-27 17:38 24.21874 32.81021 11693 ft 361 kts 179°
2026-04-27 17:38 24.19373 32.81089 11344 ft 359 kts 179°
2026-04-27 17:38 24.16886 32.81157 10994 ft 357 kts 179°
2026-04-27 17:38 24.14441 32.81224 10647 ft 345 kts 179°
2026-04-27 17:39 24.12078 32.81289 10305 ft 334 kts 179°
2026-04-27 17:39 24.09792 32.81352 9962 ft 324 kts 179°
2026-04-27 17:39 24.07576 32.81413 9618 ft 314 kts 179°
2026-04-27 17:39 24.05452 32.81471 9276 ft 305 kts 179°
2026-04-27 17:40 24.03358 32.81528 8930 ft 297 kts 179°
2026-04-27 17:40 24.01312 32.81579 8582 ft 291 kts 181°
2026-04-27 17:40 23.99312 32.81379 8233 ft 288 kts 192°
2026-04-27 17:40 23.97417 32.80702 7884 ft 286 kts 206°
2026-04-27 17:41 23.95772 32.79506 7534 ft 284 kts 223°
2026-04-27 17:41 23.94426 32.77931 7186 ft 283 kts 230°
2026-04-27 17:41 23.93189 32.76263 6837 ft 282 kts 231°
2026-04-27 17:41 23.91993 32.74611 6492 ft 280 kts 231°
2026-04-27 17:42 23.90793 32.72951 6142 ft 275 kts 231°
2026-04-27 17:42 23.89622 32.71335 5853 ft 267 kts 231°
2026-04-27 17:42 23.88483 32.69767 5579 ft 259 kts 231°
2026-04-27 17:42 23.87377 32.68249 5306 ft 252 kts 231°
2026-04-27 17:43 23.86301 32.66771 5032 ft 245 kts 231°
2026-04-27 17:43 23.85240 32.65344 4754 ft 239 kts 226°
2026-04-27 17:43 23.83885 32.64373 4465 ft 233 kts 200°
2026-04-27 17:43 23.82354 32.63936 4184 ft 229 kts 183°
2026-04-27 17:44 23.80863 32.64275 4081 ft 215 kts 150°
2026-04-27 17:44 23.79832 32.65420 4066 ft 215 kts 121°
2026-04-27 17:44 23.79163 32.66889 4057 ft 217 kts 114°
2026-04-27 17:44 23.78570 32.68411 4055 ft 218 kts 113°
2026-04-27 17:45 23.78092 32.69978 4052 ft 218 kts 99°
2026-04-27 17:45 23.78105 32.71628 4057 ft 218 kts 81°
2026-04-27 17:45 23.78433 32.73250 4056 ft 219 kts 75°
2026-04-27 17:45 23.78843 32.74846 4050 ft 214 kts 74°
2026-04-27 17:46 23.79243 32.76322 4057 ft 199 kts 73°
2026-04-27 17:46 23.79635 32.77756 3864 ft 196 kts 73°
2026-04-27 17:46 23.80028 32.79186 3640 ft 196 kts 73°
2026-04-27 17:46 23.80420 32.80614 3415 ft 196 kts 73°
2026-04-27 17:47 23.80811 32.82038 3191 ft 195 kts 73°
2026-04-27 17:47 23.81127 32.82955 3076 ft 195 kts 59°
2026-04-27 17:47 23.82605 32.83961 3045 ft 193 kts 12°
2026-04-27 17:47 23.83924 32.84147 2847 ft 187 kts 358°
2026-04-27 17:48 23.85142 32.83981 2621 ft 173 kts 348°
2026-04-27 17:48 23.86307 32.83763 2436 ft 166 kts 350°
2026-04-27 17:48 23.87449 32.83568 2182 ft 167 kts 350°
2026-04-27 17:48 23.88599 32.83369 1933 ft 168 kts 350°
2026-04-27 17:49 23.89749 32.83156 1703 ft 168 kts 349°
2026-04-27 17:49 23.90896 32.82935 1482 ft 167 kts 350°
2026-04-27 17:49 23.92047 32.82758 1333 ft 168 kts 350°
2026-04-27 17:49 23.93193 32.82552 1047 ft 166 kts 350°
2026-04-27 17:50 23.94322 32.82360 816 ft 163 kts 351°
2026-04-27 17:50 23.96369 32.82008 651 ft 106 kts 351°
2026-04-27 17:50 23.96822 32.81928 649 ft 34 kts 353°
2026-04-27 17:51 23.96897 32.82016 649 ft 14 kts 79°
2026-04-27 17:51 23.96912 32.82117 649 ft 13 kts 81°
2026-04-27 17:51 23.96916 32.82198 649 ft 8 kts 114°
2026-04-27 17:51 23.96863 32.82228 649 ft 11 kts 166°
2026-04-27 17:52 23.96751 32.82254 650 ft 15 kts 170°
2026-04-27 17:52 23.96678 32.82294 650 ft 13 kts 90°
2026-04-27 17:52 23.96733 32.82338 650 ft 9 kts 350°
2026-04-27 17:52 23.96767 32.82333 650 ft 0 kts 352°